Location: Negro Liza Wash
(37.8994°N, 113.7316°W)
Time: 17:13:49
(UTC+00:00)

Daily predictions for brighter satellites

Satellite Brightness Start Highest point End
(mag) Time Altitude Azimuth Time Altitude Azimuth Time Altitude Azimuth
Cosmos 2360 Rocket 3.2 12:05:02 18° N 12:08:57 44° ENE 12:14:20 10° SE
Cosmos 2100 Rocket 3.8 12:03:52 10° SSW 12:10:02 72° W 12:16:11 10° N
OAO 3 Copernicus 4.4 12:12:03 62° S 12:12:13 63° S 12:17:11 10° E
Cosmos 1833 4.2 12:10:16 10° SSW 12:15:51 77° ESE 12:21:29 10° NNE
SL-16 R/B 2.1 12:17:15 62° W 12:17:43 65° WSW 12:23:18 10° S
Cosmos 1825 4.1 12:14:58 10° S 12:21:06 20° NNE 12:22:25 10° NNE
Cosmos 1328 Rocket 3.6 12:18:27 47° N 12:19:35 74° E 12:23:52 10° SSE
Cosmos 2322 Rocket 2.1 12:21:32 51° NW 12:22:54 70° WSW 12:28:32 10° SSE
CZ-2C R/B 3.8 12:21:22 10° N 12:23:16 23° N 12:23:16 23° N
Cosmos 1515 Rocket 4.2 12:23:04 10° N 12:27:19 53° E 12:31:33 10° SSE
Cosmos 1743 Rocket 4.2 12:24:21 10° S 12:28:33 55° E 12:32:46 10° NNE
Okean O Rocket 3.7 12:26:39 10° NE 12:30:23 28° E 12:34:07 10° SSE
Cosmos 1802 Rocket 4.0 12:26:50 10° SSW 12:33:10 63° W 12:39:32 10° N
ATLAS 2AS CENTAUR R/B 2.7 12:30:47 30° NW 12:34:35 65° WSW 12:41:19 10° SSE
Cosmos 2173 Rocket 4.1 12:29:22 10° SSW 12:35:22 48° W 12:41:19 10° N
ASTEX 1 4.5 12:33:21 10° SSW 12:36:04 28° SW 12:36:04 28° SW
Delta 2 Rocket 3.6 12:39:02 48° WSW 12:40:00 65° S 12:44:42 10° ESE
Cosmos 1408 Rocket 4.0 12:37:34 10° SSW 12:42:40 40° NW 12:45:56 10° N
Lacrosse 5 rocket 3.1 12:43:33 15° N 12:45:17 20° NE 12:48:02 10° E
Cosmos 2346 Rocket 4.4 12:39:20 10° N 12:45:26 90° WSW 12:51:29 10° S
Cosmos 1125 Rocket 3.4 12:41:46 10° SSW 12:46:59 64° WNW 12:52:14 10° NNE
Cosmos 2233 Rocket 4.3 12:42:00 10° S 12:48:14 71° E 12:54:31 10° NNE
Cosmos 1933 3.3 12:45:40 10° N 12:49:42 84° E 12:53:41 10° S
Cosmos 1500 Rocket 3.5 12:45:57 10° S 12:50:24 90° ESE 12:54:52 10° N
SJ-12 3.9 12:48:16 10° NNE 12:52:26 85° E 12:56:34 10° SSW
Cosmos 1484 Rocket 2.7 12:49:00 10° N 12:53:00 65° WNW 12:56:56 10° SSW
Cosmos 1864 Rocket 4.4 12:49:08 10° SSW 12:55:11 63° W 13:01:20 10° N
BREEZE-M DEB (TANK) 2.3 12:55:56 33° SSW 12:55:56 33° SSW 12:58:03 10° SSE
Meteor PRIRODA 3.9 12:52:53 10° N 12:56:20 41° WNW 12:59:45 10° SW
Cosmos 2219 Rocket 3.6 12:51:36 10° N 12:56:49 36° ENE 13:02:00 10° SE
Cosmos 2061 Rocket 4.2 12:51:12 10° SSW 12:57:07 45° WNW 13:03:03 10° N
Timation 2 Rocket 4.0 12:51:11 10° SSW 12:57:15 77° ESE 13:03:13 10° NNE
Meteor 2-3 Rocket 3.8 12:52:42 10° S 12:58:27 90° SE 13:04:18 10° N
Cosmos 2322 4.0 12:53:37 10° NNW 12:59:17 67° ENE 13:04:53 10° SSE
Abrixas rocket 4.4 13:00:34 12° N 13:00:34 12° N 13:01:41 10° NNE
CZ-4B R/B 3.7 12:57:22 10° NNE 13:02:47 64° ESE 13:08:17 10° S
SL-4 R/B 2.8 13:05:10 25° WNW 13:07:33 45° SW 13:12:05 10° SSE
Cosmos 1782 4.1 13:04:26 10° N 13:08:13 42° E 13:11:59 10° SSE
ATLAS CENTAUR R/B 3.7 13:09:30 13° NNW 13:09:30 13° NNW 13:10:55 10° NNW
Cosmos 2333 Rocket 3.1 13:05:37 10° NNW 13:11:14 50° ENE 13:16:48 10° SE
ALOS 2.2 13:06:36 10° N 13:11:17 78° WNW 13:15:55 10° SSW
CZ-3B R/B 3.2 13:07:26 11° WSW 13:13:32 27° SSW 13:17:27 10° SE
USA 116 3.4 13:10:38 10° SSE 13:13:55 87° E 13:17:38 10° NNW
COSMO-SKYMED 1 2.7 13:11:16 10° S 13:15:30 53° W 13:19:46 10° NNW
NOAA 6 4.1 13:10:39 10° NNE 13:15:47 85° ESE 13:20:54 10° SSW
Cosmos 1400 Rocket 2.8 13:19:07 10° NNW 13:23:05 56° W 13:26:56 10° S
Cosmos 1238 Rocket 4.1 13:21:15 10° SSW 13:27:32 51° W 13:33:10 10° N
Cosmos 972 Rocket 4.5 13:23:29 10° SW 13:28:17 40° WNW 13:33:34 10° N
STARLINK 1044 2.5 13:32:35 10° SW 13:35:22 88° ESE 13:38:10 10° NE
FALCON 9 DEB 2.1 13:39:22 10° SW 13:41:44 65° NW 13:44:08 10° NE
Starlink Launch 2 leader 2.4 13:44:54 10° WSW 13:47:18 52° NW 13:49:42 10° NE
Helios 1A Rocket 3.5 13:44:35 10° N 13:48:17 33° WNW 13:51:55 10° SW
FALCON 9 DEB 2.4 13:48:14 10° WSW 13:50:34 47° NW 13:52:56 10° NE
Starlink Launch 2 trailer 2.5 13:48:37 10° WSW 13:50:59 45° NW 13:53:22 10° NE
STARLINK 1050 2.7 13:48:35 10° WSW 13:51:24 56° NW 13:54:13 10° NE
Okean-O 4.3 13:47:15 10° NNE 13:51:25 39° E 13:55:33 10° SSE
STARLINK 1055 2.7 13:49:41 10° WSW 13:52:27 55° NW 13:55:15 10° NE
Cosmos 2360 Rocket 3.3 13:48:12 10° NW 13:52:37 24° W 13:57:00 10° SSW
FALCON 9 DEB 2.6 13:51:08 10° WSW 13:53:28 43° NW 13:55:49 10° NE
STARLINK 1022 2.8 13:51:08 10° WSW 13:53:58 53° NW 13:56:48 10° NE
STARLINK 1042 2.8 13:51:39 10° WSW 13:54:26 52° NW 13:57:14 10° NE
Cosmos 1818 3.9 13:50:20 10° SW 13:55:31 44° NW 14:00:45 10° NNE
